#timestamp,LO_Frequency,Hit,StdDev 
1679277615.6,286047001.3,N
1679277635.4,286047004.4,N
1679277655.3,286047001.7,N
1679277675.1,286047003.6,N
1679277695.9,286047003.4,N
1679277715.7,286047005.9,N
1679277735.5,286047004.4,N
1679277755.4,286047004.4,N
1679277775.2,286047002.0,N
1679277795.0,286047003.2,N
1679277795.9,286047003.2,N
1679277815.8,286047004.6,N
1679277835.6,286047007.2,N
1679277855.5,286047005.7,N
1679277875.3,286047005.6,N
1679277895.1,286047003.2,N
1679277915.9,286047003.7,N
1679277935.7,286047004.1,N
1679277955.5,286047004.4,N
1679277975.4,286047001.6,N
1679277995.2,286047003.9,N
1679278015.1,286047004.3,N
1679278016.0,286047004.3,N
1679278035.8,286047001.8,N
1679278055.6,286047002.1,N
1679278075.5,286047003.0,N
1679278095.3,286047004.0,N
1679278115.1,286047004.2,N
1679278135.9,286047003.8,N
1679278155.7,286047003.1,N
1679278175.6,286047003.5,N
1679278195.4,286047004.2,Y
1679278215.2,286046998.9,P
1679278235.1,286046999.4,N
1679278236.0,286046999.4,N
1679278255.8,286047000.5,N
1679278275.7,286046999.3,N
1679278295.5,286047001.1,N
1679278315.3,286046998.1,N
1679278335.2,286047000.5,N
1679278355.0,286047001.6,N
1679278355.9,286047001.6,N
1679278375.7,286047002.0,N
1679278395.6,286047002.7,N
1679278415.4,286046999.8,N
1679278435.3,286047000.2,N
1679278455.1,286047000.2,N
1679278456.0,286047000.2,N
1679278475.8,286046998.1,N
1679278495.7,286047001.1,N
1679278515.5,286046999.7,N
1679278535.3,286047003.9,N
1679278555.2,286047003.6,N
1679278575.0,286047003.1,N
1679278575.9,286047003.1,N
1679278595.8,286047003.0,N
1679278615.6,286047004.0,N
1679278635.4,286047002.6,N
1679278655.3,286047001.2,N
1679278675.1,286046998.3,N
1679278695.9,286046998.4,N
1679278715.7,286046998.1,N
1679278735.5,286047000.8,N
1679278755.4,286046999.7,N
1679278775.2,286047002.8,N
1679278795.0,286047001.8,N
1679278795.9,286047001.8,N
1679278815.8,286047000.2,N
1679278835.6,286047002.6,N
1679278855.5,286047004.4,N
1679278875.3,286047003.7,N
1679278895.1,286047004.2,N
1679278915.9,286047001.4,N
1679278935.7,286047001.5,N
1679278955.5,286047003.0,N
1679278975.4,286047003.5,N
1679278995.2,286047001.4,N
1679279015.1,286047000.0,N
1679279016.0,286047000.0,N
1679279035.8,286046999.8,N
1679279055.6,286047000.8,N
1679279075.5,286047000.9,N
1679279095.3,286047002.8,N
1679279115.2,286046999.9,N
1679279135.9,286047001.3,N
1679279155.7,286047004.4,N
1679279175.6,286047002.1,N
1679279195.4,286047002.2,N
1679279215.3,286047002.5,N
1679279235.1,286047002.6,N
1679279236.0,286047002.6,N
1679279255.8,286047001.5,N
1679279275.7,286047001.8,N
1679279295.5,286047004.0,N
1679279315.4,286047003.9,N
1679279335.2,286047001.6,N
1679279355.0,286046999.9,N
1679279355.9,286046999.9,N
1679279375.8,286046999.7,N
1679279395.6,286047004.2,N
1679279415.4,286047005.4,Y
1679279435.3,286047001.8,P
1679279455.1,286047001.9,P
1679279475.9,286047000.1,N
1679279495.7,286046998.1,N
1679279515.5,286047002.1,N
1679279535.4,286047000.0,N
1679279555.2,286047000.1,N
1679279575.1,286047001.6,N
1679279576.0,286047001.6,N
1679279595.8,286047004.2,Y
1679279615.7,286047004.1,P
1679279635.5,286047003.0,N
1679279655.3,286047000.3,N
1679279675.2,286047000.9,N
1679279695.0,286047000.7,N
1679279695.9,286047000.7,N
1679279715.7,286046998.6,N
1679279735.6,286047000.7,N
1679279755.4,286047000.6,N
1679279775.3,286046999.7,N
1679279795.1,286047002.4,N
1679279796.0,286047002.4,N
1679279815.8,286047000.4,N
1679279835.7,286047000.0,N
1679279855.5,286047001.1,N
1679279875.3,286047000.7,N
1679279895.2,286047000.4,N
1679279915.0,286047000.0,N
1679279915.9,286047000.0,N
1679279935.8,286047000.8,N
1679279955.6,286047000.7,N
1679279975.4,286047000.0,N
1679279995.3,286047002.8,N
1679280015.1,286047003.5,N
1679280035.9,286047004.2,Y
1679280055.7,286047002.3,P
1679280075.5,286047004.3,P
1679280095.4,286047003.1,N
1679280115.2,286047002.9,N
1679280135.0,286047003.8,Y
1679280135.9,286047003.8,P
1679280155.8,286047002.4,P
1679280175.6,286047002.3,P
1679280195.5,286047000.8,N
1679280215.3,286046999.5,N
1679280235.1,286046999.3,N
1679280255.9,286047000.0,N
1679280275.7,286046998.7,N
1679280295.5,286046999.5,N
1679280315.4,286046996.5,N
1679280335.2,286046999.5,N
1679280355.1,286046996.8,N
1679280356.0,286046996.8,N
1679280375.8,286046998.4,N
1679280395.6,286046999.6,N
1679280415.5,286046997.1,N
1679280435.3,286046996.5,N
1679280455.2,286046999.6,N
1679280475.9,286046996.7,N
1679280495.7,286046997.7,N
1679280515.6,286046997.3,N
1679280535.4,286046996.9,N
1679280555.2,286046996.8,N
1679280575.1,286046997.2,N
1679280576.0,286046997.2,N
1679280595.8,286046997.3,N
1679280615.7,286046999.5,N
1679280635.5,286046995.3,N
1679280655.3,286046997.6,N
1679280675.2,286046997.3,N
1679280695.0,286046997.3,N
1679280695.9,286046997.3,N
1679280715.8,286046996.7,N
1679280735.6,286046994.9,Y
1679280755.4,286046996.9,P
1679280775.3,286046998.2,P
1679280795.1,286046998.9,N
1679280815.9,286046998.1,N
1679280835.7,286047001.0,N
1679280855.5,286047000.1,N
1679280875.4,286047002.4,N
1679280895.2,286047002.3,N
1679280915.0,286046999.7,N
1679280915.9,286046999.7,N
1679280935.8,286047001.8,N
1679280955.6,286047001.9,N
1679280975.5,286047001.3,N
1679280995.3,286047004.3,N
1679281015.1,286047002.1,N
1679281035.9,286047000.6,N
1679281055.7,286047001.2,N
1679281075.5,286047001.2,N
1679281095.4,286046998.8,N
1679281115.2,286046998.6,N
1679281135.1,286046998.8,N
1679281136.0,286046998.8,N
1679281155.8,286046995.8,N
1679281175.6,286046996.2,N
1679281195.5,286046995.8,N
